Stations météo

réclame
Mon MeteoGroup
Helsingborg, Suède (2611): Température de l'air & dewpoint: 11.11.2017 18:00:00 - 17.11.2017 18:00:00 (CET)Helsingborg, Suède (2611): Vitesse du vent & gusts: 11.11.2017 18:00:00 - 17.11.2017 18:00:00 (CET)Helsingborg, Suède (2611): Direction du vent: 11.11.2017 18:00:00 - 17.11.2017 18:00:00 (CET)Helsingborg, Suède (2611): reduced air pressure: 11.11.2017 18:00:00 - 17.11.2017 18:00:00 (CET)Helsingborg, Suède (2611): visibility: 11.11.2017 18:00:00 - 17.11.2017 18:00:00 (CET)Helsingborg, Suède (2611): Quantités de précipitations: 11.11.2017 18:00:00 - 17.11.2017 18:00:00 (CET)
Date & Time tt [°C] td [°C] ff [km/h] ff [knt] fx [km/h] fx [knt] dd ppp [hPa] vv [km] rr [mm]
17.11.2017 18:00:00 - - - - - - - - - -
17.11.2017 17:00:00 6,0 3,5 11 6 26 14 SW 1018,3 25 0,0
17.11.2017 16:00:00 6,8 3,1 13 7 32 18 WSW 1018,6 27 0,0
17.11.2017 15:00:00 7,7 3,0 15 8 34 18 WSW 1018,8 31 0,0
17.11.2017 14:00:00 8,2 3,1 17 9 36 19 WSW 1019,1 26 0,0
17.11.2017 13:00:00 8,5 3,1 17 9 36 19 W 1019,5 23 0,0
17.11.2017 12:00:00 8,3 3,5 18 10 34 19 W 1019,6 28 0,0
17.11.2017 11:00:00 8,0 3,5 16 9 29 16 W 1019,5 27 0,0
17.11.2017 10:00:00 7,3 3,5 13 7 22 12 W 1019,1 21 0,0
17.11.2017 09:00:00 6,2 3,2 10 6 27 15 WSW 1018,8 21 0,0
17.11.2017 08:00:00 5,8 3,0 13 7 32 17 WSW 1018,6 22 0,0
17.11.2017 07:00:00 5,9 2,9 14 7 32 17 W 1018,1 20 0,0
17.11.2017 06:00:00 5,9 2,5 15 8 31 17 W 1017,7 21 0,0
17.11.2017 05:00:00 5,8 2,6 11 6 32 18 WSW 1017,3 19 0,0
17.11.2017 04:00:00 6,3 2,6 15 8 36 19 W 1016,9 19 0,0
17.11.2017 03:00:00 6,5 2,8 17 9 36 19 W 1016,5 20 0,0
17.11.2017 02:00:00 6,6 3,4 16 9 36 20 W 1016,0 20 0,0
17.11.2017 01:00:00 7,1 4,6 18 10 56 30 W 1015,5 32 0,0
17.11.2017 00:00:00 7,2 4,3 16 8 56 30 WNW 1015,2 30 0,0
16.11.2017 23:00:00 8,4 6,7 27 15 48 26 WSW 1014,3 8 0,2
16.11.2017 22:00:00 8,4 8,0 18 10 33 18 SSW 1014,0 3,5 0,4
16.11.2017 21:00:00 8,3 7,9 18 10 33 18 S 1014,4 3,5 0,3
16.11.2017 20:00:00 8,2 7,8 17 9 28 15 S 1015,0 4,6 0,0
16.11.2017 19:00:00 8,1 7,7 18 10 29 16 S 1015,6 6 0,0
16.11.2017 18:00:00 8,0 7,4 18 10 31 17 S 1016,1 3,2 0,4
16.11.2017 17:00:00 8,0 7,4 18 10 31 17 S 1016,7 5 0,0
16.11.2017 16:00:00 7,8 7,4 16 9 30 16 S 1017,3 4,3 0,3
16.11.2017 15:00:00 7,6 7,2 18 10 32 17 S 1018,4 4,8 0,0
16.11.2017 14:00:00 7,6 7,3 17 9 32 17 S 1019,3 5 0,0
16.11.2017 13:00:00 7,4 7,1 17 9 30 16 S 1019,9 9 0,1
16.11.2017 12:00:00 7,0 6,9 13 7 23 12 S 1020,7 7 0,0
16.11.2017 11:00:00 6,1 6,0 7 4 16 8 SSE 1021,8 1,4 0,0
16.11.2017 10:00:00 4,4 4,3 6 3 14 7 SE 1022,3 0,7 0,0
16.11.2017 09:00:00 2,6 2,5 4 2 9 5 ESE 1022,5 0,2 0,0
16.11.2017 08:00:00 1,9 1,8 4 2 9 5 SE 1022,6 0,3 -
16.11.2017 07:00:00 1,2 0,9 3 2 12 6 SE 1022,6 0,5 0,0
16.11.2017 06:00:00 2,7 2,4 4 2 12 6 SE 1022,7 0,5 0,0
16.11.2017 05:00:00 2,3 2,0 3 2 11 6 S 1023,1 0,8 0,0
16.11.2017 04:00:00 2,8 2,5 3 2 11 6 SSW 1023,0 0,5 0,0
16.11.2017 03:00:00 4,3 4,0 6 4 16 8 SW 1023,0 6 0,0
16.11.2017 02:00:00 4,9 4,6 8 5 16 8 SW 1023,2 9 0,0
16.11.2017 01:00:00 3,5 3,4 6 4 14 7 SW 1023,1 0,8 0,0
16.11.2017 00:00:00 4,5 4,1 4 2 14 7 WSW 1023,2 10 0,0
15.11.2017 23:00:00 4,5 4,1 6 3 12 7 SW 1023,1 8 0,0
15.11.2017 22:00:00 4,9 4,5 6 3 16 8 SW 1022,9 8 0,0
15.11.2017 21:00:00 4,6 4,0 5 3 18 10 SW 1022,7 7 0,0
15.11.2017 20:00:00 6,0 5,4 6 3 18 10 WSW 1022,1 13 0,0
15.11.2017 19:00:00 5,8 5,4 6 3 18 10 WSW 1021,8 10 0,0
15.11.2017 18:00:00 6,3 5,6 6 3 18 10 WSW 1021,4 15 0,0
15.11.2017 17:00:00 6,9 6,0 9 5 22 12 WSW 1021,1 30 0,0
15.11.2017 16:00:00 7,5 5,6 9 5 26 14 WSW 1020,7 42 0,0
15.11.2017 15:00:00 8,8 6,2 12 7 28 15 WSW 1020,4 40 0,0
15.11.2017 14:00:00 9,5 6,0 17 9 28 15 WSW 1020,0 44 0,0
15.11.2017 13:00:00 9,9 6,4 14 8 26 14 WSW 1020,0 41 0,0
15.11.2017 12:00:00 9,6 6,1 14 8 22 12 WSW 1020,0 31 0,0
15.11.2017 11:00:00 8,1 6,1 13 7 21 12 SW 1019,9 31 0,0
15.11.2017 10:00:00 7,1 5,7 11 6 22 12 SW 1019,5 25 0,0
15.11.2017 09:00:00 5,9 5,3 13 7 26 14 SW 1019,1 19 0,0
15.11.2017 08:00:00 5,9 5,6 10 6 26 14 SW 1018,7 8 0,0
15.11.2017 07:00:00 6,1 5,7 11 6 18 10 SW 1018,4 6 0,0
15.11.2017 06:00:00 5,9 5,5 9 5 20 11 SW 1018,2 6 0,0
15.11.2017 05:00:00 5,8 5,2 10 5 23 12 WSW 1017,8 13 0,0
15.11.2017 04:00:00 5,8 5,1 9 5 23 12 SW 1017,9 12 0,0
15.11.2017 03:00:00 6,2 5,5 9 5 18 10 SW 1017,9 13 0,0
15.11.2017 02:00:00 6,3 5,4 8 4 18 10 WSW 1017,5 14 0,0
15.11.2017 01:00:00 6,2 5,3 9 5 20 11 WSW 1017,0 14 0,0
15.11.2017 00:00:00 6,7 5,3 8 4 24 13 W 1016,3 15 0,0
14.11.2017 23:00:00 6,8 5,4 10 5 34 19 WSW 1016,1 15 0,0
14.11.2017 22:00:00 7,7 5,3 13 7 39 21 WNW 1015,4 25 0,0
14.11.2017 21:00:00 6,5 4,0 15 8 47 26 NW 1014,8 45 0,0
14.11.2017 20:00:00 7,2 4,0 20 11 49 26 NW 1014,0 50 0,0
14.11.2017 19:00:00 8,1 4,5 24 13 49 26 WNW 1013,2 49 0,0
14.11.2017 18:00:00 8,4 5,5 23 13 49 26 W 1011,8 30 0,0
14.11.2017 17:00:00 8,7 5,4 20 11 40 22 W 1010,8 29 0,0
14.11.2017 16:00:00 8,1 6,7 18 10 37 20 SW 1010,0 13 0,0
14.11.2017 15:00:00 7,2 6,5 17 9 43 23 SW 1009,9 17 0,0
14.11.2017 14:00:00 6,3 5,9 23 12 43 23 SSW 1009,8 3,8 0,6
14.11.2017 13:00:00 5,7 5,0 21 11 34 19 S 1010,5 7 0,6
14.11.2017 12:00:00 5,6 4,7 21 11 34 19 S 1011,7 14 0,6
14.11.2017 11:00:00 5,0 4,0 19 10 29 16 S 1013,0 13 0,5
14.11.2017 10:00:00 4,8 3,6 16 9 29 16 SSW 1014,0 13 0,1
14.11.2017 09:00:00 4,8 2,8 13 7 25 13 SW 1014,4 29 0,0
14.11.2017 08:00:00 4,2 2,9 10 5 25 13 SW 1014,6 29 0,0
14.11.2017 07:00:00 3,6 2,7 10 5 17 9 SW 1014,5 19 0,0
14.11.2017 06:00:00 2,9 2,0 9 5 17 9 SW 1014,6 24 0,0
14.11.2017 05:00:00 2,4 1,5 8 4 16 9 SW 1014,9 19 0,0
14.11.2017 04:00:00 2,8 1,8 10 5 16 9 SSW 1015,0 31 0,0
14.11.2017 03:00:00 1,3 0,7 7 4 11 6 SSW 1015,3 50 0,0
14.11.2017 02:00:00 -0,1 -0,7 5 3 11 6 S 1015,7 18 0,0
14.11.2017 01:00:00 -0,8 -1,4 5 3 9 5 SSW 1015,9 30 0,0
14.11.2017 00:00:00 -0,8 -1,5 0 0 6 4 N 1015,9 27 0,0
13.11.2017 23:00:00 -1,4 -2,1 3 2 6 3 SSE 1015,6 49 0,0
13.11.2017 22:00:00 -1,5 -2,2 4 2 8 4 SE 1015,6 49 0,0
13.11.2017 21:00:00 -1,5 -2,2 4 2 8 4 S 1015,5 50 0,0
13.11.2017 20:00:00 -1,4 -2,4 0 0 5 3 N 1015,5 50 0,0
13.11.2017 19:00:00 -0,9 -1,9 3 1 7 4 N 1015,1 50 0,0
13.11.2017 18:00:00 0,8 -1,0 0 0 10 5 N 1014,8 50 0,0
13.11.2017 17:00:00 2,0 -0,7 4 2 27 15 WNW 1014,1 50 0,0
13.11.2017 16:00:00 2,2 -1,1 8 4 30 16 N 1013,2 50 0,0
13.11.2017 15:00:00 4,9 -0,5 13 7 34 19 NNW 1013,0 50 0,0
13.11.2017 14:00:00 4,9 -0,3 21 11 34 19 NNW 1012,6 50 0,0
13.11.2017 13:00:00 5,8 -0,3 16 8 27 14 NNW 1012,3 50 0,0
13.11.2017 12:00:00 5,1 -0,5 17 9 26 14 N 1011,8 50 0,0
13.11.2017 11:00:00 4,1 0,4 15 8 25 14 N 1011,3 44 0,0
13.11.2017 10:00:00 3,0 0,9 15 8 22 12 N 1010,5 42 0,0
13.11.2017 09:00:00 1,5 0,2 10 5 15 8 N 1009,3 50 0,0
13.11.2017 08:00:00 -0,6 -1,2 8 4 10 5 N 1008,3 50 0,0
13.11.2017 07:00:00 0,1 -0,8 5 3 6 4 N 1006,9 50 0,0
13.11.2017 06:00:00 0,0 -0,6 2 1 9 5 NE 1005,9 50 0,0
13.11.2017 05:00:00 0,2 -0,5 3 2 9 5 NNW 1005,2 50 0,0
13.11.2017 04:00:00 -1,0 -1,4 5 3 13 7 NW 1004,5 50 0,0
13.11.2017 03:00:00 -0,9 -1,3 4 2 13 7 N 1003,7 50 0,0
13.11.2017 02:00:00 -0,8 -1,2 10 6 13 7 NNW 1003,3 50 0,0
13.11.2017 01:00:00 0,4 -0,2 2 1 6 4 WNW 1002,5 49 0,0
13.11.2017 00:00:00 1,0 0,4 3 1 6 4 NNW 1001,8 50 0,0
12.11.2017 23:00:00 0,1 -0,6 3 2 6 3 N 1000,7 34 0,0
12.11.2017 22:00:00 1,1 0,4 5 3 8 5 N 999,9 34 0,0
12.11.2017 21:00:00 1,8 1,1 5 3 8 5 NNW 999,0 46 0,0
12.11.2017 20:00:00 3,6 2,7 2 1 8 4 NW 998,2 17 0,0
12.11.2017 19:00:00 4,3 3,0 3 2 11 6 SW 997,5 19 0,0
12.11.2017 18:00:00 6,1 4,4 4 2 15 8 WSW 997,1 22 0,0
12.11.2017 17:00:00 6,1 4,1 6 3 19 10 SW 996,5 22 0,0
12.11.2017 16:00:00 6,9 4,4 10 6 22 12 WSW 995,9 26 0,0
12.11.2017 15:00:00 7,0 4,0 9 5 28 15 WSW 995,7 30 0,0
12.11.2017 14:00:00 7,1 3,9 11 6 33 18 WSW 995,4 27 0,0
12.11.2017 13:00:00 7,8 3,8 16 9 33 18 WSW 995,5 32 0,0
12.11.2017 12:00:00 8,4 4,0 17 9 31 17 WSW 995,2 32 0,0
12.11.2017 11:00:00 8,5 4,9 14 8 31 17 WSW 995,1 33 0,0
12.11.2017 10:00:00 8,1 4,3 14 8 27 14 W 995,1 25 0,0
12.11.2017 09:00:00 6,8 4,3 11 6 24 13 WSW 995,0 41 0,0
12.11.2017 08:00:00 6,0 3,8 10 6 24 13 WSW 994,6 31 0,0
12.11.2017 07:00:00 5,8 3,0 11 6 33 18 WSW 994,7 41 0,0
12.11.2017 06:00:00 6,1 2,6 14 8 33 18 W 994,5 49 0,0
12.11.2017 05:00:00 6,3 3,8 13 7 29 15 WSW 994,4 41 0,0
12.11.2017 04:00:00 5,5 4,5 14 7 31 17 SW 994,3 28 0,2
12.11.2017 03:00:00 5,4 3,9 14 7 31 17 SW 994,7 13 0,1
12.11.2017 02:00:00 6,0 3,0 18 10 31 17 SW 995,1 21 0,0
12.11.2017 01:00:00 5,5 2,3 11 6 33 18 WSW 995,5 36 0,0
12.11.2017 00:00:00 5,8 2,1 19 10 44 24 W 995,7 28 0,0
11.11.2017 23:00:00 6,2 2,3 16 9 51 28 W 995,7 30 0,0
11.11.2017 22:00:00 6,6 2,9 20 11 51 28 W 995,5 27 0,0
11.11.2017 21:00:00 6,1 2,7 21 11 41 22 W 995,1 31 0,0
11.11.2017 20:00:00 6,4 2,5 18 10 44 24 W 995,1 40 0,0
11.11.2017 19:00:00 6,4 1,9 21 11 44 24 W 995,1 47 0,0
11.11.2017 18:00:00 6,7 2,0 20 11 40 22 W 994,9 39 0,0

tt = Température de l'air
td = dewpoint
ff = Vitesse du vent
fx = gusts
dd = Direction du vent
ppp = reduced air pressure
vv = visibility
rr = Quantités de précipitations

stations d'obs. à proximité